Radiation Dose at Monitoring Post of Fukushima Daini Nuclear Power Station
Date,Time,MP-1(microSv/h),MP-2(microSv/h),MP-3(microSv/h),MP-4(microSv/h),MP-5(microSv/h),MP-6(microSv/h),MP-7(microSv/h),Wind Direction,Wind Velocity(m/s),Rain
2021/11/23,00:00,0.168,0.156,0.233,0.229,0.238,0.137,0.094,northwest,6.3,Yes
2021/11/23,00:10,0.166,0.155,0.232,0.228,0.235,0.133,0.091,northwest,6.5,Yes
2021/11/23,00:20,0.164,0.152,0.229,0.226,0.234,0.132,0.090,north-northwest,3.9,No
2021/11/23,00:30,0.162,0.150,0.228,0.224,0.233,0.129,0.088,northwest,6.1,No
2021/11/23,00:40,0.160,0.150,0.227,0.223,0.231,0.128,0.086,northwest,7.4,Yes
2021/11/23,00:50,0.160,0.147,0.226,0.221,0.230,0.126,0.085,north-northwest,8.5,Yes
2021/11/23,01:00,0.159,0.146,0.223,0.220,0.228,0.126,0.083,northwest,7.5,No
2021/11/23,01:10,0.159,0.145,0.224,0.220,0.226,0.124,0.082,northwest,6.4,No
2021/11/23,01:20,0.157,0.146,0.223,0.218,0.227,0.124,0.082,northwest,7.3,No
2021/11/23,01:30,0.156,0.145,0.222,0.217,0.225,0.124,0.080,northwest,7.5,No
2021/11/23,01:40,0.157,0.144,0.222,0.218,0.227,0.122,0.079,northwest,5.7,No
2021/11/23,01:50,0.156,0.143,0.221,0.217,0.226,0.121,0.079,northwest,5.7,No
2021/11/23,02:00,0.157,0.143,0.222,0.217,0.226,0.122,0.079,north-northwest,3.7,No
2021/11/23,02:10,0.156,0.144,0.222,0.217,0.226,0.122,0.078,north-northwest,4.2,No
2021/11/23,02:20,0.155,0.142,0.221,0.216,0.223,0.120,0.079,north-northwest,4.9,No
2021/11/23,02:30,0.156,0.143,0.221,0.217,0.225,0.120,0.078,north,3.8,No
2021/11/23,02:40,0.155,0.143,0.220,0.217,0.223,0.120,0.078,north-northwest,5.0,No
2021/11/23,02:50,0.155,0.141,0.221,0.216,0.224,0.121,0.078,north-northwest,4.2,No
2021/11/23,03:00,0.155,0.142,0.222,0.217,0.224,0.120,0.077,northwest,4.1,No
2021/11/23,03:10,0.154,0.143,0.221,0.216,0.223,0.121,0.078,north-northwest,3.2,No
2021/11/23,03:20,0.155,0.142,0.221,0.215,0.225,0.120,0.078,north-northwest,5.8,No
2021/11/23,03:30,0.154,0.144,0.221,0.217,0.224,0.121,0.078,north-northwest,8.4,No
2021/11/23,03:40,0.155,0.142,0.222,0.216,0.223,0.120,0.078,north-northwest,4.4,No
2021/11/23,03:50,0.157,0.142,0.222,0.217,0.224,0.120,0.078,northwest,6.5,No
2021/11/23,04:00,0.155,0.143,0.222,0.217,0.223,0.120,0.078,north-northwest,8.8,No
2021/11/23,04:10,0.155,0.143,0.222,0.217,0.224,0.120,0.078,northwest,7.3,No
2021/11/23,04:20,0.156,0.143,0.223,0.217,0.224,0.121,0.078,northwest,6.4,No
2021/11/23,04:30,0.155,0.142,0.222,0.217,0.225,0.121,0.078,northwest,4.5,No
2021/11/23,04:40,0.156,0.143,0.221,0.218,0.224,0.121,0.078,west-northwest,7.6,No
2021/11/23,04:50,0.156,0.143,0.223,0.217,0.225,0.121,0.078,west-northwest,6.7,No
2021/11/23,05:00,0.155,0.142,0.222,0.218,0.224,0.121,0.078,north-northwest,9.0,No
2021/11/23,05:10,0.156,0.142,0.221,0.218,0.224,0.121,0.077,northwest,4.6,No
2021/11/23,05:20,0.156,0.142,0.224,0.217,0.225,0.120,0.078,south-southwest,2.6,No
2021/11/23,05:30,0.156,0.143,0.222,0.217,0.225,0.121,0.078,west-northwest,6.0,No
2021/11/23,05:40,0.156,0.143,0.221,0.218,0.223,0.121,0.078,northwest,5.3,No
2021/11/23,05:50,0.157,0.142,0.222,0.218,0.225,0.122,0.078,northwest,2.7,No
2021/11/23,06:00,0.155,0.142,0.222,0.217,0.224,0.121,0.078,northwest,5.6,No
2021/11/23,06:10,0.155,0.143,0.223,0.218,0.223,0.122,0.078,northwest,5.8,No
2021/11/23,06:20,0.156,0.143,0.223,0.217,0.226,0.121,0.078,north-northwest,5.5,No
2021/11/23,06:30,0.155,0.143,0.222,0.218,0.223,0.120,0.078,north-northwest,3.2,No
2021/11/23,06:40,0.156,0.143,0.223,0.217,0.224,0.121,0.078,northwest,6.4,No
2021/11/23,06:50,0.155,0.143,0.222,0.218,0.225,0.121,0.078,northwest,8.2,No
2021/11/23,07:00,0.155,0.144,0.222,0.217,0.224,0.121,0.078,northwest,8.7,No
2021/11/23,07:10,0.156,0.142,0.222,0.217,0.225,0.121,0.078,northwest,8.4,No
2021/11/23,07:20,0.156,0.143,0.223,0.218,0.224,0.122,0.078,west-northwest,9.0,No
2021/11/23,07:30,0.155,0.145,0.223,0.217,0.224,0.122,0.078,northwest,6.2,No
2021/11/23,07:40,0.155,0.144,0.223,0.218,0.224,0.120,0.078,northwest,4.2,No
2021/11/23,07:50,0.157,0.143,0.223,0.218,0.225,0.121,0.078,northwest,3.2,No
2021/11/23,08:00,0.156,0.144,0.224,0.218,0.225,0.121,0.078,northwest,3.5,No
2021/11/23,08:10,0.156,0.143,0.222,0.217,0.225,0.121,0.078,southeast,1.3,No
2021/11/23,08:20,0.156,0.143,0.223,0.218,0.226,0.121,0.077,west,3.3,No
2021/11/23,08:30,0.156,0.144,0.223,0.217,0.226,0.121,0.077,west-northwest,5.9,No
2021/11/23,08:40,0.155,0.143,0.223,0.217,0.225,0.121,0.078,west-northwest,7.4,No
2021/11/23,08:50,0.156,0.144,0.223,0.219,0.225,0.122,0.079,west-northwest,10.6,No
2021/11/23,09:00,0.156,0.144,0.224,0.218,0.225,0.122,0.078,west,10.7,No
2021/11/23,09:10,0.156,0.143,0.224,0.217,0.224,0.121,0.079,west-northwest,11.5,No
2021/11/23,09:20,0.156,0.143,0.223,0.218,0.227,0.122,0.078,west,11.1,No
2021/11/23,09:30,0.156,0.143,0.223,0.217,0.224,0.122,0.078,west,8.1,No
2021/11/23,09:40,0.156,0.143,0.223,0.219,0.225,0.122,0.078,southwest,1.6,No
2021/11/23,09:50,0.156,0.143,0.223,0.217,0.226,0.122,0.079,southwest,1.3,No
2021/11/23,10:00,0.157,0.143,0.222,0.219,0.224,0.122,0.077,west,1.3,No
2021/11/23,10:10,0.156,0.143,0.223,0.218,0.225,0.123,0.079,west,7.1,No
2021/11/23,10:20,0.156,0.143,0.222,0.220,0.224,0.122,0.078,west,5.5,No
2021/11/23,10:30,0.155,0.143,0.224,0.218,0.226,0.122,0.078,west,2.5,No
2021/11/23,10:40,0.158,0.143,0.221,0.218,0.225,0.122,0.079,west-northwest,5.5,No
2021/11/23,10:50,0.156,0.144,0.223,0.219,0.225,0.122,0.079,west,6.8,No
2021/11/23,11:00,0.156,0.144,0.223,0.219,0.226,0.122,0.079,west-northwest,5.8,No
2021/11/23,11:10,0.155,0.144,0.222,0.219,0.225,0.123,0.078,west,3.4,No
2021/11/23,11:20,0.157,0.143,0.223,0.218,0.226,0.122,0.079,north-northwest,1.6,No
2021/11/23,11:30,0.157,0.144,0.223,0.219,0.225,0.123,0.079,west,10.9,No
2021/11/23,11:40,0.156,0.142,0.223,0.217,0.224,0.123,0.079,west,7.6,No
2021/11/23,11:50,0.156,0.143,0.223,0.218,0.225,0.122,0.078,west-southwest,4.5,No
2021/11/23,12:00,0.156,0.143,0.224,0.220,0.224,0.123,0.079,west-southwest,5.6,No
2021/11/23,12:10,0.156,0.143,0.225,0.218,0.225,0.123,0.079,west-southwest,5.9,No
2021/11/23,12:20,0.157,0.143,0.224,0.218,0.223,0.123,0.078,south-southwest,4.3,No
2021/11/23,12:30,0.155,0.144,0.223,0.219,0.225,0.122,0.078,southwest,2.2,No
2021/11/23,12:40,0.156,0.142,0.223,0.217,0.224,0.123,0.077,southwest,1.0,No
2021/11/23,12:50,0.156,0.144,0.223,0.220,0.224,0.123,0.079,west,3.6,No
2021/11/23,13:00,0.154,0.143,0.225,0.218,0.225,0.123,0.078,west-southwest,3.7,No
2021/11/23,13:10,0.156,0.145,0.224,0.218,0.227,0.123,0.078,west-southwest,2.6,No
2021/11/23,13:20,0.156,0.143,0.225,0.219,0.226,0.123,0.079,west-southwest,2.5,No
2021/11/23,13:30,0.156,0.144,0.223,0.217,0.226,0.122,0.078,west-southwest,1.7,No
2021/11/23,13:40,0.157,0.144,0.224,0.220,0.224,0.123,0.079,west,5.0,No
2021/11/23,13:50,0.156,0.143,0.223,0.218,0.222,0.122,0.078,west,7.1,No
2021/11/23,14:00,0.157,0.144,0.225,0.219,0.225,0.123,0.078,west,6.9,No
2021/11/23,14:10,0.157,0.143,0.224,0.218,0.225,0.124,0.080,west,6.4,No
2021/11/23,14:20,0.157,0.144,0.223,0.220,0.223,0.123,0.078,west,6.2,No
2021/11/23,14:30,0.157,0.144,0.225,0.219,0.226,0.123,0.079,west,5.3,No
2021/11/23,14:40,0.157,0.144,0.224,0.219,0.225,0.123,0.078,west,5.4,No
2021/11/23,14:50,0.158,0.144,0.225,0.221,0.226,0.123,0.079,west,3.2,No
2021/11/23,15:00,0.157,0.144,0.225,0.220,0.227,0.123,0.079,west,2.8,No
2021/11/23,15:10,0.158,0.144,0.223,0.219,0.225,0.122,0.078,west,2.8,No
2021/11/23,15:20,0.157,0.145,0.225,0.221,0.226,0.123,0.078,west-northwest,3.1,No
2021/11/23,15:30,0.157,0.145,0.224,0.220,0.225,0.122,0.079,west-southwest,2.9,No
2021/11/23,15:40,0.157,0.144,0.225,0.220,0.227,0.123,0.078,west-southwest,2.1,No
2021/11/23,15:50,0.156,0.144,0.223,0.221,0.226,0.122,0.079,west-southwest,2.5,No
2021/11/23,16:00,0.157,0.144,0.224,0.220,0.226,0.123,0.078,west-southwest,2.1,No
2021/11/23,16:10,0.157,0.144,0.224,0.220,0.226,0.123,0.079,west-southwest,2.8,No
2021/11/23,16:20,0.156,0.144,0.224,0.220,0.225,0.123,0.078,west,4.9,No
2021/11/23,16:30,0.157,0.144,0.224,0.218,0.226,0.122,0.078,west,5.3,No
2021/11/23,16:40,0.157,0.145,0.225,0.220,0.225,0.123,0.079,west,5.3,No
2021/11/23,16:50,0.156,0.144,0.226,0.219,0.225,0.123,0.078,west,6.1,No
2021/11/23,17:00,0.158,0.144,0.224,0.221,0.226,0.125,0.078,west,5.8,No
2021/11/23,17:10,0.157,0.144,0.224,0.221,0.226,0.124,0.078,west-northwest,7.3,No
2021/11/23,17:20,0.157,0.144,0.226,0.221,0.226,0.123,0.079,west-northwest,9.2,No
2021/11/23,17:30,0.158,0.145,0.224,0.220,0.225,0.123,0.079,west,9.8,No
2021/11/23,17:40,0.157,0.143,0.224,0.221,0.225,0.123,0.078,west,9.5,No
2021/11/23,17:50,0.157,0.144,0.224,0.220,0.226,0.124,0.079,west,11.8,No
2021/11/23,18:00,0.157,0.144,0.224,0.220,0.226,0.123,0.079,west-northwest,12.5,No
2021/11/23,18:10,0.157,0.144,0.225,0.220,0.225,0.123,0.078,west,12.5,No
2021/11/23,18:20,0.157,0.143,0.225,0.220,0.226,0.123,0.079,west-northwest,10.9,No
2021/11/23,18:30,0.158,0.143,0.225,0.219,0.225,0.124,0.078,west,12.6,No
2021/11/23,18:40,0.157,0.144,0.225,0.220,0.225,0.122,0.078,west,12.2,No
2021/11/23,18:50,0.157,0.144,0.224,0.220,0.227,0.123,0.079,west,12.6,No
2021/11/23,19:00,0.159,0.144,0.225,0.219,0.224,0.124,0.078,west,12.3,No
2021/11/23,19:10,0.158,0.144,0.225,0.220,0.226,0.124,0.079,west,11.2,No
2021/11/23,19:20,0.158,0.143,0.225,0.220,0.226,0.124,0.079,west,12.5,No
2021/11/23,19:30,0.157,0.144,0.224,0.220,0.225,0.123,0.079,west,12.5,No
2021/11/23,19:40,0.156,0.144,0.225,0.220,0.225,0.124,0.078,west-northwest,11.2,No
2021/11/23,19:50,0.158,0.144,0.226,0.221,0.227,0.124,0.078,west,12.6,No
2021/11/23,20:00,0.158,0.144,0.224,0.221,0.225,0.124,0.079,west-northwest,12.2,No
2021/11/23,20:10,0.157,0.145,0.225,0.220,0.226,0.123,0.079,west,13.1,No
2021/11/23,20:20,0.157,0.143,0.224,0.219,0.227,0.123,0.079,west,13.7,No
2021/11/23,20:30,0.157,0.144,0.225,0.221,0.225,0.124,0.078,west-northwest,13.6,No
2021/11/23,20:40,0.157,0.144,0.225,0.221,0.226,0.124,0.078,west,13.6,No
2021/11/23,20:50,0.158,0.144,0.225,0.219,0.226,0.124,0.078,west,10.4,No
2021/11/23,21:00,0.158,0.143,0.224,0.221,0.227,0.123,0.078,west,12.0,No
2021/11/23,21:10,0.157,0.145,0.225,0.221,0.227,0.124,0.078,west,13.4,No
2021/11/23,21:20,0.157,0.143,0.225,0.220,0.225,0.123,0.079,west,13.4,No
2021/11/23,21:30,0.159,0.145,0.226,0.220,0.226,0.124,0.078,west,12.9,No
2021/11/23,21:40,0.158,0.145,0.225,0.220,0.226,0.123,0.079,west,13.3,No
2021/11/23,21:50,0.157,0.144,0.225,0.222,0.227,0.124,0.078,west-northwest,12.9,No
2021/11/23,22:00,0.158,0.144,0.225,0.219,0.225,0.123,0.079,west,12.2,No
2021/11/23,22:10,0.158,0.144,0.226,0.220,0.226,0.124,0.079,west-northwest,8.7,No
2021/11/23,22:20,0.157,0.144,0.225,0.220,0.225,0.123,0.079,west,11.5,No
2021/11/23,22:30,0.158,0.144,0.226,0.219,0.226,0.124,0.078,west,11.5,No
2021/11/23,22:40,0.157,0.143,0.226,0.221,0.226,0.125,0.078,west,11.2,No
2021/11/23,22:50,0.157,0.145,0.226,0.221,0.225,0.124,0.078,west,9.2,No
2021/11/23,23:00,0.158,0.145,0.225,0.220,0.225,0.124,0.078,west,11.8,No
2021/11/23,23:10,0.159,0.144,0.224,0.219,0.226,0.124,0.079,west,9.3,No
2021/11/23,23:20,0.158,0.145,0.224,0.221,0.225,0.123,0.079,west,10.0,No
2021/11/23,23:30,0.158,0.145,0.225,0.221,0.225,0.124,0.078,west,11.2,No
2021/11/23,23:40,0.159,0.145,0.225,0.220,0.225,0.123,0.078,west,10.7,No
2021/11/23,23:50,0.158,0.145,0.225,0.220,0.225,0.123,0.078,west-northwest,10.6,No
